Youngstown, OH

9:36 PM EST on December 09, 2019 (GMT -0500)
Youngstown-Warren Regional

Weather History for KYNG - September, 2019

Change the Weather History Date:

Monday, September 30, 2019

  Actual Average Record
Temperature  
Mean Temperature 70 °F 56 °F  
Max Temperature 80 °F 66 °F 86 °F (1953)
Min Temperature 63 °F 46 °F 32 °F (1942)
Degree Days  
Heating Degree Days 0 9  
Month to date heating degree days 146  
Since 1 July heating degree days 183  
Cooling Degree Days 6 1  
Month to date cooling degree days 52  
Year to date cooling degree days 538  
Growing Degree Days 20 (Base 50)    
Moisture  
Dew Point 65 °F    
Average Humidity 84    
Maximum Humidity 93    
Minimum Humidity 68    
Precipitation  
Precipitation 0.01 in 0.12 in 2.56 in (1959)
Month to date precipitation 3.75  
Year to date precipitation 29.97  
Snow  
Snow - 0.00 in - ()
Month to date snowfall 0.0  
Since 1 July snowfall 0.0  
Since 1 September snowfall 0.0  
Snow Depth -    
Sea Level Pressure  
Sea Level Pressure 30.14 in    
Wind  
Wind Speed 5 mph ()    
Max Wind Speed 9 mph    
Max Gust Speed -    
Visibility 8.9 miles    
Events Rain    
T = Trace of Precipitation, MM = Missing Value Source: Averaged Metar Reports

Daily Weather History Graph

Daily Weather History Graph

Search for Another Location

Airport or City:

Astronomy

Sep. 30, 2019 Rise Set
Actual Time 7:18 AM EDT 7:06 PM EDT
Civil Twilight 6:50 AM EDT 7:34 PM EDT
Nautical Twilight 6:18 AM EDT 8:06 PM EDT
Astronomical Twilight 5:46 AM EDT 8:38 PM EDT
Moon 9:21 AM EDT (9/30) 8:40 PM EDT (9/30)
Length of Visible Light 12h 43m
Length of Day
11h 48m
Waxing Crescent, 5% of the Moon is Illuminated
Sep 30
Waxing Crescent
Oct 5
First Quarter
Oct 13
Full
Oct 21
Last Quarter
Oct 27
New

Hourly Weather History & Observations

Time (EDT) Temp. Dew Point Humidity Pressure Visibility Wind Dir Wind Speed Gust Speed Precip Events Conditions
12:51 AM 63.0 °F 60.1 °F 90% 30.19 in 10.0 mi ESE 6.9 mph - N/A   Mostly Cloudy
1:51 AM 63.0 °F 60.1 °F 90% 30.18 in 10.0 mi ESE 6.9 mph - N/A   Mostly Cloudy
2:51 AM 64.0 °F 60.1 °F 87% 30.17 in 10.0 mi SE 5.8 mph - N/A   Overcast
3:51 AM 64.0 °F 60.1 °F 87% 30.16 in 10.0 mi SE 5.8 mph - 0.00 in Rain Light Rain
4:51 AM 64.0 °F 61.0 °F 90% 30.15 in 10.0 mi ESE 3.5 mph - 0.01 in   Overcast
5:51 AM 64.0 °F 62.1 °F 93% 30.17 in 10.0 mi Calm Calm - N/A   Overcast
6:21 AM 64.9 °F 62.1 °F 90% 30.18 in 5.0 mi SSW 3.5 mph - N/A   Overcast
6:51 AM 64.9 °F 63.0 °F 93% 30.16 in 5.0 mi SSE 3.5 mph - N/A   Overcast
8:20 AM 66.0 °F 64.0 °F 93% 30.19 in 3.0 mi South 5.8 mph - N/A   Overcast
8:51 AM 66.9 °F 64.0 °F 90% 30.18 in 5.0 mi SSW 3.5 mph - N/A   Overcast
9:22 AM 68.0 °F 64.9 °F 90% 30.20 in 6.0 mi SSW 3.5 mph - N/A   Overcast
9:51 AM 68.0 °F 64.9 °F 90% 30.19 in 5.0 mi SSW 5.8 mph - N/A   Overcast
10:51 AM 70.0 °F 66.0 °F 87% 30.18 in 10.0 mi SSW 3.5 mph - N/A   Overcast
11:51 AM 72.0 °F 66.0 °F 81% 30.17 in 10.0 mi WSW 8.1 mph - N/A   Overcast
12:51 PM 73.0 °F 66.9 °F 81% 30.16 in 10.0 mi SW 6.9 mph - N/A   Overcast
1:18 PM 73.9 °F 66.9 °F 79% 30.17 in 10.0 mi SW 4.6 mph - N/A   Overcast
1:51 PM 75.0 °F 66.9 °F 76% 30.13 in 10.0 mi West 5.8 mph - N/A   Overcast
2:12 PM 75.2 °F 66.2 °F 73% 30.13 in 10.0 mi Variable 4.6 mph - N/A   Overcast
2:51 PM 77.0 °F 68.0 °F 74% 30.10 in 10.0 mi Variable 4.6 mph - N/A   Mostly Cloudy
3:51 PM 78.1 °F 68.0 °F 71% 30.09 in 10.0 mi South 8.1 mph - N/A   Mostly Cloudy
4:51 PM 78.1 °F 66.9 °F 68% 30.09 in 10.0 mi SSW 8.1 mph - N/A   Mostly Cloudy
5:43 PM 77.0 °F 66.9 °F 71% 30.09 in 10.0 mi SSW 3.5 mph - N/A   Scattered Clouds
5:51 PM 78.1 °F 66.9 °F 68% 30.07 in 10.0 mi SSW 8.1 mph - N/A   Scattered Clouds
6:51 PM 73.0 °F 66.9 °F 81% 30.08 in 10.0 mi South 3.5 mph - N/A   Partly Cloudy
7:51 PM 69.1 °F 66.0 °F 90% 30.08 in 10.0 mi ESE 3.5 mph - N/A   Partly Cloudy
8:51 PM 68.0 °F 64.9 °F 90% 30.09 in 10.0 mi ESE 4.6 mph - N/A   Scattered Clouds
9:51 PM 69.1 °F 64.9 °F 87% 30.08 in 10.0 mi SSE 6.9 mph - N/A   Scattered Clouds
10:51 PM 72.0 °F 66.9 °F 84% 30.07 in 10.0 mi SSE 8.1 mph - N/A   Mostly Cloudy
11:51 PM 72.0 °F 66.9 °F 84% 30.05 in 10.0 mi SSE 9.2 mph - N/A   Mostly Cloudy